[[{"header":{"parameterUnit":"m.s-1","parameterCategory":2,"la1":30.2992,"la2":30.254,"lo1":-89.0895,"lo2":-89.0443,"dy":0.0025,"dx":0.0025,"nx":19,"ny":19,"refTime":"2026-05-08T09:00:00:Z","depth":"0","parameterNumber":2,"parameterNumberName":"U-component_of_CURRENTS"},"data":[0,0,0,0.0923,0.0922,0.0895,0.0895,0.0919,0.0919,0,0,0,0,0,0,0,0,0,0,0,0.0934,0.0934,0.0923,0.0922,0.0895,0.0895,0.0919,0.0919,0,0,0,0,0,0,0,0,0,0,0,0.0934,0.0934,0.0934,0.0922,0.0895,0.0895,0.0919,0.0925,0,0,0,0,0,0,0,0,0,0,0.0943,0.0946,0.0934,0.0934,0.0922,0.0895,0.0895,0.0924,0.0924,0.0947,0,0.0942,0,0.0932,0.0922,0.0922,0,0,0,0.0923,0.0946,0.0938,0.0934,0.0921,0.0895,0.0908,0.0924,0.0924,0.0948,0.0942,0.0943,0.0932,0.0922,0.0923,0.0939,0.0939,0,0,0.0924,0.0932,0.0938,0.0938,0.0915,0.0908,0.0907,0.0923,0.0926,0.0942,0.0943,0.0932,0.0923,0.0923,0.0939,0.0939,0,0,0,0.0928,0.0933,0.0923,0.0938,0.0928,0.0908,0.0906,0.0925,0.0921,0.0943,0.0933,0.0923,0.0923,0.094,0.0939,0.0908,0,0,0,0.0929,0.0935,0.0924,0.0929,0.0927,0.0918,0.0907,0.092,0.0921,0.0933,0.0923,0.0924,0.094,0.0939,0.0909,0.09,0,0,0,0.0935,0.0936,0.0932,0.0929,0.0916,0.0918,0.0914,0.092,0.0916,0.0922,0.0924,0.094,0.0939,0.0911,0.0902,0.0899,0,0,0,0.0945,0.0932,0.0932,0.0917,0.0917,0.0896,0.0914,0.0906,0.091,0.0923,0.094,0.0939,0.0911,0.0903,0.09,0.0903,0.0899,0,0,0.0931,0.093,0.092,0.092,0.0893,0.09,0.0882,0.0897,0.0914,0.0939,0.0939,0.0909,0.0902,0.0899,0.0884,0.0881,0,0,0,0.0917,0.0906,0.09,0.0885,0.0878,0.0868,0.0877,0.0883,0.0893,0.0914,0.0911,0.0908,0.0907,0.0911,0.0908,0.0859,0.0938,0.0938,0.0938,0.0896,0.0888,0.0866,0.0854,0.0849,0.0848,0.0843,0.0855,0.0879,0.0877,0.0884,0.0863,0.0866,0.0864,0.0812,0.0884,0.0884,0.0884,0.0883,0.0856,0.0832,0.0836,0.0811,0.0813,0.0807,0.0816,0.0826,0.0836,0.0855,0.0855,0.0879,0.0859,0.0805,0.0882,0.0882,0.0882,0.0882,0.0882,0.0824,0.081,0.0804,0.0778,0.0772,0.0783,0.0776,0.0793,0.0813,0.081,0.0835,0.0836,0.0789,0.082,0.082,0.082,0.082,0.0819,0.0819,0.0787,0.0779,0.0757,0.0744,0.074,0.074,0.0756,0.0764,0.0791,0.0807,0.0807,0.0774,0.0844,0.0847,0.0818,0.0819,0.0819,0.0819,0.0819,0.0725,0.0735,0.07,0.0691,0.0687,0.0672,0.0702,0.0729,0.0751,0.0766,0.0738,0.0806,0.0821,0.0823,0.0826,0.0794,0.0794,0.0794,0.0794,0.0688,0.0689,0.0646,0.0632,0.0627,0.0638,0.0618,0.0655,0.0693,0.0696,0.0699,0.0699,0.0702,0.0709,0.0714,0.0715,0.0655,0.0655,0.0655,0.0646,0.0639,0.0603,0.0599,0.0601,0.0592,0.056,0.0564,0.0624,0.0643,0.0625,0.0631,0.0626,0.0636,0.0646,0.0657,0.0658,0,0]},{"header":{"parameterUnit":"m.s-1","parameterCategory":2,"la1":30.2992,"la2":30.254,"lo1":-89.0895,"lo2":-89.0443,"dy":0.0025,"dx":0.0025,"nx":19,"ny":19,"refTime":"2026-05-08T09:00:00:Z","depth":"0","parameterNumber":3,"parameterNumberName":"V-component_of_CURRENTS"},"data":[0,0,0,0.0258,0.0258,0.0238,0.0238,0.0249,0.0249,0,0,0,0,0,0,0,0,0,0,0,0.0267,0.0267,0.0259,0.0258,0.0238,0.0238,0.0249,0.0249,0,0,0,0,0,0,0,0,0,0,0,0.0267,0.0267,0.0267,0.0258,0.0238,0.0238,0.0249,0.0255,0,0,0,0,0,0,0,0,0,0,0.0269,0.0274,0.0267,0.0267,0.0258,0.0238,0.0238,0.0255,0.0254,0.0269,0,0.0266,0,0.0259,0.0251,0.0251,0,0,0,0.0257,0.0274,0.0267,0.0267,0.0258,0.0238,0.0247,0.0254,0.0254,0.0269,0.0266,0.0266,0.0259,0.0251,0.0251,0.0292,0.0292,0,0,0.0258,0.0266,0.0267,0.0267,0.0254,0.0248,0.0246,0.0254,0.0256,0.0266,0.0266,0.0259,0.0251,0.0251,0.0292,0.0292,0,0,0,0.0262,0.0266,0.0259,0.0267,0.0261,0.0247,0.0246,0.0256,0.0253,0.0266,0.0259,0.0251,0.0252,0.0291,0.0292,0.0283,0,0,0,0.0263,0.0268,0.0259,0.0264,0.0261,0.0253,0.0248,0.0252,0.0253,0.0259,0.0251,0.0252,0.0291,0.0291,0.0283,0.0275,0,0,0,0.0268,0.0269,0.0267,0.0264,0.0255,0.0253,0.025,0.0252,0.0249,0.0251,0.0252,0.0291,0.0291,0.0283,0.0275,0.0304,0,0,0,0.0276,0.0274,0.0267,0.0266,0.0255,0.026,0.025,0.0256,0.026,0.0252,0.0291,0.0292,0.0283,0.0274,0.0304,0.0425,0.0437,0,0,0.0277,0.0275,0.0274,0.0267,0.0269,0.0262,0.0269,0.0269,0.0275,0.029,0.0291,0.0283,0.0275,0.0304,0.0461,0.0472,0,0,0,0.0277,0.0276,0.0277,0.0275,0.0277,0.0275,0.0278,0.0279,0.0287,0.0279,0.0298,0.0293,0.0312,0.0385,0.0394,0.0416,0.0294,0.0294,0.0294,0.0291,0.0286,0.0287,0.0283,0.0287,0.0289,0.0287,0.0291,0.0301,0.0306,0.0298,0.0329,0.0407,0.0415,0.0435,0.0314,0.0314,0.0314,0.0314,0.0292,0.0289,0.0288,0.0285,0.0286,0.0293,0.0294,0.0295,0.031,0.0306,0.0325,0.0386,0.0425,0.0443,0.0313,0.0314,0.0314,0.0314,0.0314,0.0299,0.0295,0.0291,0.0285,0.0285,0.0289,0.0296,0.0291,0.0307,0.0313,0.0427,0.0428,0.0436,0.0341,0.0341,0.0341,0.0341,0.0341,0.0341,0.0303,0.0298,0.0291,0.0284,0.0283,0.0285,0.0298,0.0326,0.0402,0.0432,0.0434,0.0465,0.0338,0.0327,0.0343,0.0342,0.0342,0.0342,0.0342,0.0304,0.0294,0.0284,0.0281,0.028,0.0307,0.0327,0.0459,0.05,0.0573,0.0611,0.0507,0.0526,0.052,0.0515,0.0579,0.0579,0.0579,0.0579,0.03,0.0296,0.0274,0.0268,0.0276,0.0312,0.0445,0.058,0.0703,0.0757,0.0717,0.0735,0.0725,0.0754,0.0743,0.0742,0.0861,0.0861,0.0861,0.0295,0.0286,0.0271,0.0261,0.027,0.0338,0.0494,0.0694,0.0859,0.0868,0.0719,0.0707,0.0724,0.0706,0.0742,0.0725,0.0719,0,0]}],[{"header":{"parameterUnit":"m.s-1","parameterCategory":2,"la1":30.2992,"la2":30.254,"lo1":-89.0895,"lo2":-89.0443,"dy":0.0025,"dx":0.0025,"nx":19,"ny":19,"refTime":"2026-05-08T09:00:00:Z","depth":"2","parameterNumber":2,"parameterNumberName":"U-component_of_CURRENTS"},"data":[0,0,0,0.0921,0.0921,0.0898,0.0898,0.0929,0.0929,0,0,0,0,0,0,0,0,0,0,0,0.0933,0.0933,0.0921,0.0921,0.0898,0.0898,0.0929,0.0929,0,0,0,0,0,0,0,0,0,0,0,0.0933,0.0933,0.0933,0.0921,0.0898,0.0898,0.0929,0.0931,0,0,0,0,0,0,0,0,0,0,0.0946,0.0948,0.0933,0.0933,0.092,0.0898,0.0898,0.0931,0.0931,0.0955,0,0.0951,0,0.094,0.0933,0.0933,0,0,0,0.0923,0.0947,0.094,0.0933,0.092,0.0898,0.0909,0.0931,0.0931,0.0956,0.0952,0.0952,0.094,0.0933,0.0933,0.0956,0.0956,0,0,0.0924,0.0931,0.094,0.0941,0.0915,0.091,0.0908,0.093,0.0934,0.0952,0.0952,0.0941,0.0933,0.0934,0.0956,0.0956,0,0,0,0.0926,0.0932,0.0924,0.094,0.093,0.0909,0.0907,0.0932,0.0929,0.0953,0.0941,0.0933,0.0934,0.0956,0.0956,0.0921,0,0,0,0.0927,0.0933,0.0924,0.0929,0.0929,0.0923,0.0909,0.0928,0.0929,0.0941,0.0934,0.0935,0.0957,0.0956,0.0922,0.091,0,0,0,0.0934,0.0934,0.0931,0.0929,0.0918,0.0922,0.092,0.0927,0.0923,0.0933,0.0935,0.0957,0.0956,0.0923,0.0912,0.0909,0,0,0,0.0942,0.0929,0.0931,0.0916,0.0918,0.09,0.0919,0.0914,0.092,0.0934,0.0957,0.0956,0.0924,0.0913,0.0909,0.092,0.0916,0,0,0.0927,0.0928,0.0918,0.0919,0.0895,0.0903,0.0887,0.0906,0.0926,0.0955,0.0954,0.0922,0.0912,0.0909,0.0906,0.0902,0,0,0,0.0914,0.0904,0.0899,0.0886,0.0881,0.0873,0.0885,0.0892,0.0906,0.0927,0.0927,0.0922,0.0921,0.0929,0.0927,0.0955,0.0955,0.0955,0.0955,0.0893,0.0887,0.0866,0.0857,0.0853,0.0855,0.0851,0.0865,0.0892,0.0891,0.0897,0.0875,0.0883,0.0882,0.09,0.0899,0.0899,0.0899,0.0899,0.0854,0.0831,0.0837,0.0814,0.0818,0.0814,0.0824,0.0835,0.0845,0.0867,0.0868,0.0896,0.0877,0.0896,0.0897,0.0897,0.0898,0.0898,0.0898,0.0824,0.081,0.0805,0.0782,0.0776,0.0789,0.078,0.0797,0.0819,0.0814,0.0848,0.0849,0.0857,0.0825,0.0825,0.0825,0.0825,0.0825,0.0825,0.0787,0.078,0.0759,0.0747,0.0742,0.0741,0.0757,0.0765,0.0796,0.0815,0.0816,0.0851,0.0853,0.0854,0.0824,0.0824,0.0824,0.0824,0.0824,0.0724,0.0736,0.0702,0.0693,0.0686,0.067,0.07,0.0735,0.0757,0.0776,0.0818,0.0818,0.0834,0.0837,0.0838,0.0806,0.0806,0.0806,0.0806,0.0688,0.0689,0.0648,0.0633,0.0624,0.0633,0.0619,0.0652,0.0722,0.0749,0.0751,0.076,0.0763,0.0776,0.078,0.078,0.0732,0.0732,0.0732,0.0646,0.064,0.0604,0.06,0.0596,0.0587,0.0562,0.0554,0.0632,0.0726,0.0706,0.0807,0.0828,0.0829,0.0857,0.086,0.0865,0,0]},{"header":{"parameterUnit":"m.s-1","parameterCategory":2,"la1":30.2992,"la2":30.254,"lo1":-89.0895,"lo2":-89.0443,"dy":0.0025,"dx":0.0025,"nx":19,"ny":19,"refTime":"2026-05-08T09:00:00:Z","depth":"2","parameterNumber":3,"parameterNumberName":"V-component_of_CURRENTS"},"data":[0,0,0,0.0096,0.0096,0.0087,0.0087,0.0097,0.0097,0,0,0,0,0,0,0,0,0,0,0,0.0102,0.0102,0.0096,0.0096,0.0087,0.0087,0.0097,0.0097,0,0,0,0,0,0,0,0,0,0,0,0.0102,0.0102,0.0102,0.0096,0.0087,0.0087,0.0097,0.0098,0,0,0,0,0,0,0,0,0,0,0.0105,0.0108,0.0102,0.0102,0.0096,0.0087,0.0087,0.0098,0.0098,0.0108,0,0.0108,0,0.0103,0.0099,0.0099,0,0,0,0.0096,0.0108,0.0104,0.0102,0.0096,0.0087,0.0091,0.0098,0.0098,0.0108,0.0108,0.0108,0.0103,0.0099,0.0099,0.0141,0.0141,0,0,0.0096,0.0102,0.0104,0.0104,0.0096,0.0091,0.009,0.0098,0.0101,0.0108,0.0109,0.0103,0.0099,0.0099,0.0141,0.0141,0,0,0,0.0098,0.0102,0.0098,0.0104,0.0101,0.0091,0.009,0.01,0.0099,0.0109,0.0103,0.0099,0.0099,0.014,0.0141,0.014,0,0,0,0.0098,0.0103,0.0098,0.0101,0.01,0.0098,0.0093,0.0098,0.0099,0.0103,0.0099,0.0099,0.014,0.0141,0.0139,0.0133,0,0,0,0.0102,0.0104,0.0103,0.0102,0.0097,0.0097,0.0095,0.0098,0.0096,0.0099,0.0099,0.014,0.0141,0.0139,0.0133,0.016,0,0,0,0.0107,0.0105,0.0103,0.0102,0.0097,0.0103,0.0095,0.0103,0.0108,0.0099,0.014,0.0141,0.0138,0.0132,0.0159,0.0237,0.0247,0,0,0.0106,0.0105,0.0105,0.0102,0.0105,0.0104,0.0115,0.0118,0.0123,0.0138,0.0139,0.014,0.0133,0.016,0.0281,0.029,0,0,0,0.0105,0.0105,0.0106,0.0108,0.0112,0.0119,0.0125,0.013,0.0144,0.0129,0.0156,0.0151,0.0169,0.0214,0.0222,0.0145,0.0144,0.0144,0.0144,0.0114,0.0111,0.0113,0.0115,0.0122,0.0134,0.014,0.0152,0.0158,0.017,0.0163,0.0198,0.0247,0.0253,0.018,0.018,0.018,0.018,0.018,0.0113,0.0112,0.0116,0.0116,0.0128,0.0141,0.0157,0.0162,0.0185,0.018,0.0197,0.0226,0.0261,0.018,0.018,0.018,0.018,0.018,0.018,0.0119,0.0116,0.0117,0.0119,0.013,0.0143,0.0161,0.0167,0.0187,0.0196,0.0272,0.0273,0.0194,0.0218,0.0218,0.0219,0.0219,0.0219,0.0219,0.0121,0.012,0.0119,0.0121,0.0126,0.0139,0.0166,0.0196,0.0258,0.028,0.0282,0.0211,0.021,0.0197,0.022,0.022,0.022,0.022,0.022,0.0119,0.0117,0.0114,0.0116,0.0127,0.0155,0.0186,0.0299,0.0336,0.0392,0.0338,0.0335,0.0345,0.0341,0.0332,0.0389,0.0389,0.0389,0.0389,0.0116,0.0114,0.0106,0.0109,0.0123,0.0159,0.0268,0.0353,0.0415,0.0407,0.0405,0.0404,0.0399,0.0411,0.0404,0.0396,0.0469,0.0469,0.0469,0.011,0.0107,0.0102,0.0102,0.0118,0.0179,0.0294,0.0393,0.0433,0.0465,0.0345,0.0408,0.0405,0.0396,0.0412,0.0403,0.0389,0,0]}],[{"header":{"parameterUnit":"m.s-1","parameterCategory":2,"la1":30.2992,"la2":30.254,"lo1":-89.0895,"lo2":-89.0443,"dy":0.0025,"dx":0.0025,"nx":19,"ny":19,"refTime":"2026-05-08T09:00:00:Z","depth":"4","parameterNumber":2,"parameterNumberName":"U-component_of_CURRENTS"},"data":[0,0,0,0.0473,0.0474,0.0531,0.0532,0.0581,0.0581,0,0,0,0,0,0,0,0,0,0,0,0.0453,0.0454,0.0473,0.0474,0.0531,0.0532,0.0581,0.0581,0,0,0,0,0,0,0,0,0,0,0,0.0453,0.0454,0.0454,0.0474,0.0531,0.0532,0.0581,0.0544,0,0,0,0,0,0,0,0,0,0,0.0491,0.0479,0.0454,0.0454,0.0474,0.0531,0.0532,0.0542,0.0546,0.0547,0,0.0557,0,0.0569,0.0584,0.0584,0,0,0,0.0476,0.0476,0.0488,0.0454,0.0475,0.0531,0.0506,0.0545,0.0549,0.0552,0.0558,0.056,0.057,0.0584,0.0584,0.0605,0.0605,0,0,0.0473,0.0467,0.0485,0.0491,0.0491,0.0504,0.0508,0.0548,0.0553,0.0558,0.0561,0.057,0.0584,0.0584,0.0605,0.0605,0,0,0,0.0462,0.0464,0.0477,0.0489,0.05,0.0506,0.051,0.0552,0.0555,0.0562,0.0571,0.0584,0.0585,0.0605,0.0605,0.0591,0,0,0,0.0461,0.0458,0.0475,0.0472,0.05,0.0531,0.0513,0.0553,0.0558,0.0571,0.0584,0.0585,0.0605,0.0605,0.0592,0.0584,0,0,0,0.0451,0.0457,0.0463,0.0472,0.0495,0.0531,0.0537,0.0554,0.0563,0.0584,0.0585,0.0605,0.0605,0.0592,0.0585,0.06,0,0,0,0.0442,0.0446,0.0463,0.047,0.0495,0.051,0.0537,0.056,0.0577,0.0585,0.0605,0.0605,0.0592,0.0585,0.06,0.0506,0,0,0,0.0438,0.0446,0.0448,0.0464,0.0465,0.0503,0.0508,0.0547,0.0574,0.0591,0.0592,0.0591,0.0585,0.06,0.0499,0,0,0,0,0.044,0.0441,0.0444,0.0453,0.0469,0.0484,0.0522,0.0541,0.0576,0.0584,0.0593,0.0589,0.0599,0.0545,0.0604,0.0604,0.0604,0.0605,0.0605,0.0421,0.0427,0.0425,0.0435,0.0443,0.0474,0.0494,0.0527,0.0555,0.0572,0.0579,0.0581,0.0522,0.0581,0.0581,0.0581,0.0581,0.0581,0.0581,0.0397,0.0391,0.0403,0.0408,0.0423,0.0434,0.0473,0.0504,0.0548,0.0564,0.0575,0.0534,0.0579,0.058,0.058,0.058,0.058,0.058,0.058,0.0369,0.0367,0.0384,0.0386,0.0394,0.0421,0.0433,0.0483,0.0538,0.0551,0.0517,0.0578,0.0579,0.057,0.057,0.057,0.057,0.057,0.057,0.0332,0.0344,0.0349,0.0362,0.0356,0.0377,0.0426,0.045,0.0507,0.0492,0.0559,0.0578,0.0578,0.0579,0.0571,0.0571,0.0571,0.0571,0.0571,0.0272,0.0306,0.0293,0.0293,0.0281,0.0283,0.0356,0.0394,0.0419,0.0424,0.0463,0.0469,0.0469,0.0473,0.047,0.0429,0.0428,0.0427,0,0.0237,0.0251,0.0237,0.0199,0.0174,0.0206,0.0221,0.0275,0.0338,0.032,0.041,0.0452,0.0456,0.0454,0.0456,0.045,0,0,0,0.0187,0.0198,0.0163,0.0148,0.0098,0.0133,0.022,0.0222,0.0337,0.0333,0.0396,0.0404,0.0486,0.0572,0.0586,0.0587,0.059,0,0]},{"header":{"parameterUnit":"m.s-1","parameterCategory":2,"la1":30.2992,"la2":30.254,"lo1":-89.0895,"lo2":-89.0443,"dy":0.0025,"dx":0.0025,"nx":19,"ny":19,"refTime":"2026-05-08T09:00:00:Z","depth":"4","parameterNumber":3,"parameterNumberName":"V-component_of_CURRENTS"},"data":[0,0,0,-0.0013,-0.0013,-0.0016,-0.0016,-0.002,-0.002,0,0,0,0,0,0,0,0,0,0,0,-0.0015,-0.0015,-0.0013,-0.0013,-0.0016,-0.0016,-0.002,-0.002,0,0,0,0,0,0,0,0,0,0,0,-0.0015,-0.0015,-0.0016,-0.0013,-0.0016,-0.0016,-0.002,-0.0018,0,0,0,0,0,0,0,0,0,0,-0.0016,-0.0018,-0.0015,-0.0016,-0.0013,-0.0016,-0.0016,-0.0018,-0.0018,-0.0018,0,-0.002,0,-0.0018,-0.002,-0.002,0,0,0,-0.0015,-0.0018,-0.0017,-0.0016,-0.0013,-0.0016,-0.0015,-0.0018,-0.0018,-0.0019,-0.002,-0.002,-0.0018,-0.002,-0.002,0.0017,0.0017,0,0,-0.0015,-0.0017,-0.0017,-0.0017,-0.0015,-0.0015,-0.0015,-0.0018,-0.002,-0.002,-0.002,-0.0018,-0.002,-0.002,0.0016,0.0017,0,0,0,-0.0013,-0.0017,-0.0016,-0.0017,-0.0016,-0.0015,-0.0015,-0.002,-0.0019,-0.002,-0.0018,-0.002,-0.002,0.0016,0.0017,0.0044,0,0,0,-0.0013,-0.0016,-0.0016,-0.0018,-0.0016,-0.0018,-0.0017,-0.0019,-0.0019,-0.0018,-0.002,-0.002,0.0015,0.0016,0.0042,0.0044,0,0,0,-0.0015,-0.0016,-0.0017,-0.0018,-0.0017,-0.0018,-0.0017,-0.0019,-0.0018,-0.002,-0.002,0.0015,0.0016,0.004,0.0042,0.0064,0,0,0,-0.0017,-0.0024,-0.0017,-0.0023,-0.0017,-0.0012,-0.0017,-0.0015,-0.0015,-0.002,0.0015,0.0016,0.004,0.004,0.0063,0.0012,0,0,0,-0.0028,-0.0026,-0.0029,-0.0022,-0.0021,-0.0011,0.0008,0.0004,0.0002,0.0015,0.0016,0.0043,0.0041,0.0064,0.0071,0,0,0,0,-0.0033,-0.0036,-0.0034,-0.0031,-0.0022,0.0005,0.0008,0.0028,0.005,0.0007,0.0055,0.0053,0.0067,0.0034,0.0021,0.0021,0.0021,0.0021,0.0021,-0.0052,-0.0044,-0.0045,-0.0031,-0.0018,0.0019,0.0049,0.008,0.0067,0.0094,0.0085,0.0133,0.0101,0.0102,0.0102,0.0102,0.0102,0.0102,0.0102,-0.0065,-0.0065,-0.0045,-0.0043,-0.0005,0.0018,0.0088,0.0106,0.0153,0.0136,0.0148,0.0077,0.0105,0.0105,0.0104,0.0104,0.0104,0.0103,0.0103,-0.0074,-0.0073,-0.0069,-0.0055,-0.002,0.0024,0.0088,0.0133,0.0166,0.0187,0.0144,0.0152,0.0139,0.0186,0.0186,0.0186,0.0187,0.0187,0.0187,-0.0088,-0.0083,-0.0083,-0.0063,-0.0048,0.0,0.0087,0.013,0.0167,0.0166,0.0184,0.0161,0.0158,0.0144,0.0189,0.0188,0.0188,0.0188,0.0188,-0.0113,-0.0101,-0.0102,-0.0094,-0.0053,-0.0009,0.0065,0.013,0.0171,0.0177,0.0163,0.0164,0.0147,0.0145,0.0129,0.0171,0.0171,0.017,0,-0.0127,-0.0122,-0.0119,-0.0104,-0.0064,-0.0009,0.005,0.0102,0.0138,0.0123,0.0169,0.0151,0.0152,0.013,0.0128,0.0108,0,0,0,-0.0147,-0.0134,-0.0139,-0.0115,-0.007,0.0009,0.0071,0.0084,0.0119,0.0144,0.0158,0.0161,0.0176,0.0194,0.017,0.0167,0.0142,0,0]}]]